Total_Precipitation_Accumulation
0.06 0.13 0.35 0.61 1.12 1.56 1.29 0.66 0.49 0.35 0.33 0.44 0.42 0.32 0.34 0.45 0.62 0.99 0.59 0.46 0.22 0.11 0.12 0.22 0.27 0.23 0.27 0.29 0.30 0.32 0.32 0.32 0.33 0.34 0.37 0.43 0.42 0.38 0.38 0.41 0.46 0.53 0.60 0.61 0.60 0.52 0.42 0.38 0.38
0.09 0.20 0.42 0.81 1.50 1.79 1.12 0.50 0.37 0.30 0.37 0.44 0.35 0.28 0.32 0.30 0.27 0.27 0.37 0.43 0.18 0.08 0.09 0.11 0.20 0.20 0.20 0.24 0.28 0.31 0.28 0.28 0.30 0.33 0.33 0.37 0.40 0.40 0.40 0.42 0.48 0.53 0.54 0.47 0.45 0.40 0.32 0.29 0.30
0.13 0.22 0.51 0.88 1.14 1.21 0.63 0.30 0.27 0.27 0.39 0.41 0.34 0.29 0.33 0.37 0.35 0.30 0.26 0.24 0.15 0.08 0.09 0.12 0.16 0.16 0.15 0.18 0.24 0.26 0.25 0.26 0.29 0.30 0.31 0.34 0.36 0.40 0.42 0.46 0.49 0.48 0.44 0.39 0.40 0.37 0.31 0.27 0.29
0.16 0.29 0.50 0.69 0.75 0.61 0.35 0.24 0.23 0.28 0.38 0.33 0.29 0.39 0.44 0.49 0.31 0.27 0.22 0.16 0.12 0.11 0.10 0.12 0.16 0.14 0.14 0.16 0.19 0.23 0.26 0.28 0.28 0.26 0.30 0.32 0.37 0.39 0.38 0.40 0.41 0.40 0.35 0.35 0.34 0.30 0.29 0.28 0.31
0.18 0.39 0.58 0.65 0.55 0.37 0.27 0.24 0.25 0.25 0.24 0.31 0.35 0.54 0.60 0.57 0.34 0.39 0.39 0.25 0.12 0.12 0.13 0.15 0.17 0.15 0.16 0.17 0.19 0.21 0.22 0.26 0.26 0.25 0.27 0.30 0.36 0.35 0.34 0.34 0.35 0.33 0.29 0.30 0.32 0.32 0.28 0.31 0.35
0.21 0.34 0.44 0.47 0.36 0.23 0.25 0.24 0.21 0.21 0.26 0.36 0.46 0.49 0.64 0.59 0.47 0.64 0.58 0.42 0.23 0.17 0.20 0.23 0.25 0.23 0.20 0.19 0.19 0.20 0.23 0.24 0.26 0.27 0.27 0.29 0.32 0.34 0.33 0.33 0.35 0.32 0.29 0.29 0.30 0.32 0.31 0.34 0.39
0.19 0.24 0.28 0.27 0.23 0.20 0.19 0.19 0.19 0.20 0.34 0.45 0.50 0.60 0.79 0.88 0.67 0.66 0.73 0.68 0.44 0.40 0.50 0.43 0.32 0.27 0.28 0.27 0.26 0.25 0.28 0.30 0.31 0.31 0.29 0.31 0.33 0.34 0.34 0.36 0.37 0.36 0.34 0.33 0.31 0.29 0.32 0.36 0.41
0.11 0.13 0.15 0.14 0.13 0.15 0.13 0.15 0.18 0.21 0.29 0.46 0.57 0.72 1.03 0.98 0.81 0.80 0.86 0.99 0.76 0.63 0.64 0.60 0.48 0.42 0.34 0.29 0.29 0.31 0.36 0.38 0.35 0.32 0.33 0.34 0.34 0.37 0.40 0.40 0.48 0.48 0.50 0.52 0.49 0.42 0.39 0.45 0.50
0.06 0.12 0.11 0.10 0.08 0.09 0.08 0.11 0.17 0.23 0.30 0.36 0.59 0.77 0.80 0.73 0.92 0.99 1.14 1.38 1.34 1.06 0.96 0.83 0.55 0.47 0.45 0.39 0.36 0.44 0.47 0.47 0.51 0.50 0.46 0.60 0.78 0.78 0.87 0.72 0.81 0.78 0.82 0.81 0.81 0.76 0.74 0.75 0.66
0.05 0.09 0.08 0.04 0.04 0.06 0.06 0.08 0.16 0.33 0.49 0.74 0.98 0.95 0.74 0.74 1.05 1.24 1.42 1.69 1.74 1.59 1.39 1.14 0.84 0.66 0.60 0.54 0.61 0.68 0.69 0.80 0.85 1.02 1.05 1.30 1.53 1.46 1.07 1.12 1.34 1.38 1.39 1.33 1.35 1.48 1.33 1.17 1.02
0.04 0.04 0.03 0.04 0.04 0.04 0.04 0.07 0.11 0.24 0.68 1.18 1.42 1.33 1.13 1.00 1.25 1.60 1.92 2.22 2.01 1.73 1.56 1.45 1.22 0.99 0.79 0.86 0.88 0.97 1.11 1.41 1.29 1.22 1.35 1.72 1.59 1.31 1.20 1.34 1.62 1.90 1.87 1.82 1.91 2.06 1.71 1.79 1.99
0.02 0.02 0.02 0.02 0.02 0.02 0.03 0.06 0.15 0.26 0.67 0.94 1.17 1.26 1.30 1.30 1.38 1.60 1.92 2.20 2.40 2.29 2.04 1.83 1.68 1.46 1.39 1.30 1.21 1.13 1.20 1.35 1.35 1.52 1.38 1.71 1.85 1.73 1.69 1.89 1.96 2.16 2.34 2.73 2.58 2.70 2.56 2.45 2.27
0.02 0.02 0.01 0.01 0.02 0.02 0.03 0.08 0.18 0.29 0.55 0.62 0.71 0.87 1.16 1.39 1.72 2.01 2.17 2.51 2.63 2.73 2.52 2.37 2.22 2.13 2.10 1.95 1.76 1.40 1.47 1.46 1.49 1.71 1.73 1.82 2.08 2.19 2.28 2.28 2.22 2.07 2.40 2.83 3.06 2.76 3.03 3.02 2.61
0.01 0.01 0.01 0.02 0.03 0.04 0.05 0.10 0.20 0.34 0.49 0.56 0.64 0.85 1.12 1.46 1.74 2.15 2.45 2.85 2.86 2.90 3.01 3.10 2.97 2.85 2.84 2.64 2.45 2.17 1.96 2.06 1.99 2.01 2.15 2.32 2.54 2.71 2.76 2.61 2.52 2.29 2.30 2.60 2.82 2.79 3.04 2.91 2.75
0.01 0.02 0.06 0.06 0.06 0.07 0.15 0.25 0.39 0.52 0.56 0.75 0.84 1.09 1.27 1.58 1.95 2.04 2.22 2.48 2.79 3.06 3.51 3.76 3.80 3.72 3.68 3.56 3.23 2.85 2.67 2.67 2.81 2.88 2.89 2.83 2.95 3.20 3.09 2.88 2.54 2.41 2.46 2.62 2.57 2.59 2.65 2.51 2.44
0.02 0.05 0.14 0.14 0.09 0.11 0.19 0.49 0.59 0.63 0.73 0.94 0.99 1.23 1.53 1.61 1.96 2.10 2.13 2.34 2.91 3.38 3.93 4.22 4.37 4.61 4.48 4.43 4.10 3.60 3.34 3.23 3.20 3.25 3.25 3.16 3.22 3.10 3.06 2.77 2.37 2.46 2.53 2.52 2.54 2.39 2.44 2.47 2.52
0.05 0.09 0.17 0.23 0.14 0.15 0.22 0.53 0.66 0.68 0.87 1.02 1.18 1.21 1.37 1.59 2.02 2.31 2.45 2.60 3.11 3.70 4.36 4.73 5.22 5.53 5.41 5.12 4.62 4.14 4.00 3.80 3.59 3.55 3.47 3.32 3.10 2.94 3.02 2.72 2.60 2.56 2.55 2.40 2.19 2.50 2.64 2.65 2.65
0.08 0.10 0.17 0.27 0.18 0.17 0.30 0.51 0.72 0.81 0.96 1.14 1.18 1.17 1.31 1.60 1.82 2.18 2.49 2.90 3.33 3.76 4.51 5.13 5.70 5.91 5.65 5.11 4.67 4.49 4.30 3.97 3.72 3.43 3.19 2.93 2.81 2.62 2.76 2.53 2.50 2.62 2.66 2.44 2.45 2.70 2.72 2.44 2.49
0.06 0.09 0.18 0.25 0.16 0.19 0.33 0.51 0.72 0.90 1.05 1.11 1.28 1.27 1.45 1.71 1.86 2.24 2.60 3.04 3.48 3.99 4.73 5.34 5.75 5.72 5.51 5.12 4.73 4.42 3.95 3.65 3.38 3.09 2.88 2.65 2.37 2.26 2.54 2.34 2.60 2.51 2.36 2.19 2.19 2.30 2.33 2.07 2.30
0.07 0.11 0.23 0.25 0.16 0.17 0.33 0.55 0.83 0.93 0.90 0.93 1.15 1.26 1.33 1.52 1.81 2.16 2.66 2.95 3.29 3.81 4.36 4.78 4.76 4.42 4.29 4.26 4.15 3.87 3.88 3.74 3.60 3.34 3.10 2.69 2.50 2.35 2.19 2.32 2.19 2.15 2.22 2.03 1.93 2.12 2.12 1.89 2.21
0.07 0.09 0.16 0.21 0.23 0.25 0.35 0.70 0.99 1.03 0.90 0.84 0.87 1.00 1.12 1.26 1.46 1.79 2.34 2.64 2.82 3.25 3.59 3.64 3.51 3.34 3.38 3.43 3.39 3.47 3.68 3.69 3.62 3.46 3.16 2.85 2.69 2.58 2.43 2.31 2.12 2.05 1.91 1.93 1.95 2.02 2.04 1.95 1.95
0.09 0.07 0.08 0.11 0.20 0.43 0.49 0.89 1.19 1.29 1.20 0.97 0.88 0.99 1.06 1.17 1.22 1.50 1.84 2.05 2.30 2.49 2.64 2.64 2.71 2.74 2.75 2.77 2.76 2.68 2.71 2.89 3.10 3.32 3.34 3.27 3.04 2.79 2.52 2.32 2.13 1.94 1.79 1.93 1.66 1.75 2.01 2.07 1.81
0.06 0.05 0.07 0.11 0.16 0.31 0.43 0.70 1.14 1.41 1.56 1.23 0.98 0.90 0.86 1.00 1.25 1.44 1.53 1.67 1.76 1.78 1.90 1.96 2.25 2.57 2.66 2.69 2.78 2.69 2.43 2.41 2.47 2.61 2.75 2.74 2.72 2.56 2.26 2.16 2.11 1.94 1.77 1.75 1.71 1.94 1.94 1.90 1.81
0.07 0.11 0.17 0.26 0.38 0.62 0.59 0.65 1.04 1.29 1.43 1.15 0.96 0.89 0.77 0.78 0.96 1.17 1.41 1.47 1.41 1.39 1.56 1.76 2.06 2.45 2.66 2.69 2.66 2.63 2.54 2.50 2.41 2.39 2.42 2.30 2.29 2.23 2.09 2.01 2.04 1.89 1.76 1.73 1.71 1.83 1.89 1.96 2.01
0.08 0.16 0.50 0.85 1.17 1.21 0.71 0.69 0.93 0.98 0.92 0.93 0.81 0.75 0.80 0.73 0.72 0.73 0.91 1.14 1.10 1.06 1.21 1.48 1.68 1.97 2.18 2.27 2.27 2.21 2.32 2.42 2.30 2.15 2.07 1.99 1.86 1.78 1.80 1.88 1.95 1.80 1.73 1.79 1.91 1.87 1.82 1.91 2.01
0.08 0.12 0.36 0.63 0.81 0.93 0.75 1.10 1.24 0.92 0.77 0.68 0.57 0.54 0.60 0.57 0.52 0.50 0.57 0.71 0.92 0.92 0.96 1.09 1.33 1.51 1.70 1.80 1.92 2.03 2.20 2.29 2.24 2.38 2.19 2.03 1.74 1.62 1.67 1.85 1.91 1.81 1.73 1.70 1.97 1.97 1.96 2.03 2.01
0.09 0.08 0.13 0.22 0.36 0.63 0.88 1.12 1.11 0.94 0.89 0.70 0.52 0.44 0.44 0.42 0.40 0.41 0.49 0.67 0.68 0.67 0.72 0.84 1.05 1.20 1.37 1.54 1.72 1.79 1.76 1.78 1.91 2.10 2.12 1.97 1.87 1.69 1.76 1.82 1.97 2.02 2.05 2.06 2.18 2.10 2.10 2.25 2.23
0.10 0.09 0.11 0.16 0.30 0.48 0.80 1.16 1.23 1.14 1.01 0.85 0.73 0.53 0.41 0.40 0.38 0.39 0.43 0.50 0.50 0.49 0.63 0.85 1.00 1.01 1.25 1.56 1.74 1.65 1.62 1.53 1.67 1.76 1.81 1.86 1.81 1.80 1.83 1.83 1.89 1.98 2.06 2.10 2.23 2.21 2.28 2.45 2.47
0.14 0.12 0.11 0.14 0.17 0.31 0.68 0.90 0.80 0.88 0.85 0.81 0.69 0.58 0.49 0.44 0.44 0.44 0.43 0.43 0.54 0.49 0.58 0.73 0.84 0.97 1.24 1.56 1.76 1.75 1.60 1.59 1.71 1.64 1.62 1.75 1.79 1.78 1.82 1.82 1.78 1.75 1.87 2.07 2.25 2.25 2.39 2.51 2.56
0.15 0.14 0.14 0.20 0.19 0.22 0.37 0.61 0.49 0.59 0.71 0.72 0.53 0.46 0.44 0.35 0.37 0.35 0.32 0.37 0.37 0.37 0.50 0.79 1.10 1.44 1.59 1.84 2.07 2.06 1.78 1.61 1.54 1.42 1.44 1.64 1.83 1.85 1.82 1.79 1.76 1.71 1.79 2.05 2.23 2.34 2.60 2.73 2.63